Location: Harwich
(41.7160°N, 69.9939°W)
Time: 13:19:37
(UTC+01:00)

A-11 Canister half - Pass Details

Date: 07 December 2023
Orbit: 1526 x 1682 km, 47.3° (Epoch: 01 March)

Event Time Altitude Azimuth Distance (km) Brightness Sun altitude
Rises 06:53:54 0° 297° (WNW) 4,904 - -64.2°
Reaches altitude 10° 06:57:12 10° 293° (WNW) 3,897 - -63.7°
Maximum altitude 07:06:36 50° 222° (SW) 1,987 - -62.4°
Drops below altitude 10° 07:15:41 10° 151° (SSE) 3,768 - -61.0°
Sets 07:18:50 0° 146° (SE) 4,730 - -60.5°
